sat.trackr.live / text

‹ back to catalog

STARLINK-36388

NORAD 68037 · 2026-040Y

PAYLOAD ACTIVE UNKNOWN

§ Identity

Operator
Country
US
Launch date
2026-03-01
Launch site
AFWTR
Launch vehicle
Mass (kg)
RCS (m²)

Purposes: comms

External: N2YO · Heavens-Above · Gunter

§ Orbital elements

Epoch: 2026-05-24T19:38:10.310496Z

Period
93.91 min
Inclination
97.2850°
Eccentricity
0.0001777
Mean motion
15.33450088 rev/d
Perigee alt
464.3 km
Apogee alt
466.7 km
Semi-major
6,843.7 km
B*
4.4461e-4
RAAN
93.8943°
Arg perigee
100.8463°
Mean anomaly
259.2980°
Rev number
1,313

§ Raw data

STARLINK-363881 68037U 26040Y   26144.81817489  .00014308  00000+0  44461-3 0  99962 68037  97.2850  93.8943 0001777 100.8463 259.2980 15.33450088 13137

JSON: /api/v1/satellites/68037 · /tle

For live sub-satellite position, see the globe view (requires WebGL).

§ Visibility from observer

Set your observer location to see the next 7 days of passes ≥ 10°. The values pass through the URL so the page stays shareable.

No JS? Fill the form by hand. The geolocation button needs JavaScript.